N370MK KMCO-KJZI

Flight info

Callsign N370MK
Flight time 1h 0m
Altitude 39000
Route FATHE4 VIYAP SAV BAGGY3
Aircraft E55P/M-SBDFGHJ2RWY/LB2

Departure

Time 2026-04-26 02:41
Airport Orlando International Airport (KMCO)

Arrival

Time 2026-04-26 03:41
Airport Charleston Executive Airport (KJZI)
Time Latitude Longitude Altitude Speed Heading
2026-04-26 02:28 28.43316 -81.33314 89 ft 0 kts 89°
2026-04-26 02:34 28.43316 -81.33311 89 ft 1 kts 89°
2026-04-26 02:35 28.43319 -81.33281 89 ft 4 kts 63°
2026-04-26 02:35 28.43341 -81.33234 90 ft 7 kts 78°
2026-04-26 02:35 28.43340 -81.33174 90 ft 7 kts 92°
2026-04-26 02:35 28.43343 -81.33113 90 ft 9 kts 84°
2026-04-26 02:36 28.43345 -81.33021 90 ft 12 kts 91°
2026-04-26 02:36 28.43354 -81.32931 90 ft 8 kts 44°
2026-04-26 02:36 28.43429 -81.32926 90 ft 15 kts 360°
2026-04-26 02:36 28.43551 -81.32928 90 ft 18 kts
2026-04-26 02:37 28.43679 -81.32926 89 ft 18 kts 355°
2026-04-26 02:37 28.43805 -81.32933 89 ft 18 kts 359°
2026-04-26 02:37 28.43930 -81.32933 89 ft 18 kts
2026-04-26 02:37 28.44053 -81.32871 89 ft 20 kts 22°
2026-04-26 02:38 28.44204 -81.32862 89 ft 21 kts
2026-04-26 02:38 28.44357 -81.32861 89 ft 21 kts 357°
2026-04-26 02:38 28.44507 -81.32865 89 ft 21 kts
2026-04-26 02:38 28.44654 -81.32865 89 ft 21 kts
2026-04-26 02:39 28.44776 -81.32864 89 ft 10 kts 15°
2026-04-26 02:39 28.44815 -81.32810 89 ft 6 kts 91°
2026-04-26 02:39 28.44815 -81.32795 89 ft 0 kts 92°
2026-04-26 02:39 28.44814 -81.32783 89 ft 5 kts 92°
2026-04-26 02:40 28.44811 -81.32733 89 ft 6 kts 105°
2026-04-26 02:40 28.44772 -81.32696 89 ft 5 kts 182°
2026-04-26 02:40 28.44766 -81.32696 89 ft 0 kts 181°
2026-04-26 02:40 28.44603 -81.32694 89 ft 60 kts 180°
2026-04-26 02:41 28.43940 -81.32685 90 ft 125 kts 178°
2026-04-26 02:41 28.42972 -81.32674 375 ft 152 kts 179°
2026-04-26 02:41 28.41837 -81.32638 823 ft 175 kts 178°
2026-04-26 02:41 28.40629 -81.32694 1573 ft 177 kts 204°
2026-04-26 02:42 28.39748 -81.33599 2172 ft 189 kts 242°
2026-04-26 02:42 28.39588 -81.35222 2254 ft 233 kts 284°
2026-04-26 02:42 28.40578 -81.36787 2652 ft 261 kts 325°
2026-04-26 02:42 28.42289 -81.37295 3650 ft 261 kts
2026-04-26 02:43 28.45779 -81.36208 5407 ft 265 kts 15°
2026-04-26 02:43 28.47555 -81.35603 6176 ft 270 kts 15°
2026-04-26 02:43 28.49368 -81.34979 6947 ft 275 kts 15°
2026-04-26 02:44 28.51233 -81.34339 7528 ft 287 kts 15°
2026-04-26 02:44 28.53161 -81.33672 8260 ft 292 kts 15°
2026-04-26 02:44 28.55109 -81.32989 9066 ft 294 kts 15°
2026-04-26 02:44 28.57089 -81.32284 9837 ft 298 kts 15°
2026-04-26 02:45 28.59049 -81.31581 10616 ft 299 kts 15°
2026-04-26 02:45 28.61038 -81.30875 11394 ft 301 kts 15°
2026-04-26 02:45 28.63047 -81.30146 12126 ft 303 kts 15°
2026-04-26 02:45 28.65099 -81.29836 12820 ft 302 kts 358°
2026-04-26 02:46 28.67219 -81.29726 13536 ft 305 kts
2026-04-26 02:46 28.69340 -81.29617 14219 ft 308 kts
2026-04-26 02:46 28.71484 -81.29502 14913 ft 310 kts
2026-04-26 02:46 28.73657 -81.29387 15578 ft 312 kts
2026-04-26 02:47 28.75831 -81.29273 16206 ft 316 kts
2026-04-26 02:47 28.78023 -81.29155 16841 ft 318 kts
2026-04-26 02:47 28.80251 -81.29040 17465 ft 321 kts
2026-04-26 02:47 28.82488 -81.28919 18078 ft 323 kts
2026-04-26 02:48 28.84726 -81.28863 18651 ft 324 kts 354°
2026-04-26 02:48 28.86972 -81.29087 19199 ft 328 kts 354°
2026-04-26 02:48 28.89268 -81.29276 19718 ft 331 kts 353°
2026-04-26 02:48 28.91569 -81.29475 20216 ft 336 kts 354°
2026-04-26 02:49 28.93921 -81.29675 20736 ft 339 kts 353°
2026-04-26 02:49 28.96298 -81.29877 21249 ft 342 kts 353°
2026-04-26 02:49 28.98673 -81.30078 21753 ft 344 kts 353°
2026-04-26 02:49 29.01049 -81.30334 22217 ft 347 kts 351°
2026-04-26 02:50 29.03470 -81.30604 22666 ft 350 kts 352°
2026-04-26 02:50 29.05907 -81.30874 23133 ft 353 kts 351°
2026-04-26 02:50 29.08384 -81.31148 23619 ft 355 kts 351°
2026-04-26 02:50 29.10840 -81.31421 24037 ft 359 kts 352°
2026-04-26 02:51 29.13359 -81.31566 24456 ft 363 kts 354°
2026-04-26 02:51 29.15870 -81.31719 24898 ft 365 kts 354°
2026-04-26 02:51 29.18438 -81.31870 25435 ft 364 kts 354°
2026-04-26 02:51 29.20966 -81.32021 26010 ft 362 kts 354°
2026-04-26 02:52 29.23459 -81.32169 26539 ft 361 kts 354°
2026-04-26 02:52 29.25979 -81.32323 26997 ft 362 kts 353°
2026-04-26 02:52 29.28504 -81.32472 27495 ft 362 kts 353°
2026-04-26 02:52 29.30998 -81.32622 28001 ft 361 kts 353°
2026-04-26 02:53 29.33505 -81.32775 28467 ft 361 kts 353°
2026-04-26 02:53 29.36015 -81.32923 28941 ft 360 kts 353°
2026-04-26 02:53 29.38586 -81.33079 29427 ft 360 kts 353°
2026-04-26 02:53 29.41081 -81.33231 29882 ft 360 kts 353°
2026-04-26 02:54 29.43618 -81.33382 30384 ft 358 kts 352°
2026-04-26 02:54 29.46087 -81.33533 30879 ft 356 kts 352°
2026-04-26 02:54 29.48567 -81.33682 31359 ft 355 kts 352°
2026-04-26 02:54 29.51028 -81.33827 31817 ft 354 kts 352°
2026-04-26 02:55 29.53502 -81.33979 32272 ft 353 kts 352°
2026-04-26 02:55 29.55955 -81.34125 32724 ft 352 kts 351°
2026-04-26 02:55 29.58395 -81.34274 33150 ft 351 kts 351°
2026-04-26 02:55 29.60819 -81.34421 33569 ft 350 kts 351°
2026-04-26 02:56 29.63269 -81.34570 34053 ft 348 kts 351°
2026-04-26 02:56 29.65659 -81.34710 34537 ft 346 kts 351°
2026-04-26 02:56 29.68078 -81.34847 35024 ft 343 kts 351°
2026-04-26 02:56 29.70449 -81.34985 35513 ft 340 kts 351°
2026-04-26 02:57 29.72797 -81.35117 35966 ft 338 kts 351°
2026-04-26 02:57 29.75151 -81.35253 36390 ft 337 kts 351°
2026-04-26 02:57 29.77480 -81.35389 36808 ft 336 kts 351°
2026-04-26 02:57 29.79806 -81.35520 37208 ft 335 kts 351°
2026-04-26 02:58 29.82131 -81.35655 37590 ft 335 kts 351°
2026-04-26 02:58 29.84458 -81.35788 37981 ft 334 kts 351°
2026-04-26 02:58 29.86773 -81.35921 38373 ft 333 kts 351°
2026-04-26 02:58 29.89087 -81.36053 38753 ft 332 kts 351°
2026-04-26 02:59 29.91403 -81.36188 38898 ft 337 kts 350°
2026-04-26 02:59 29.93782 -81.36328 38923 ft 346 kts 351°
2026-04-26 02:59 29.98719 -81.36612 38927 ft 364 kts 351°
2026-04-26 03:00 30.03880 -81.36908 38912 ft 376 kts 351°
2026-04-26 03:00 30.09214 -81.37217 38913 ft 392 kts 351°
2026-04-26 03:01 30.14793 -81.37540 38913 ft 406 kts 351°
2026-04-26 03:01 30.20532 -81.37872 38915 ft 420 kts 352°
2026-04-26 03:02 30.26458 -81.38213 38915 ft 432 kts 351°
2026-04-26 03:02 30.32557 -81.38567 38914 ft 444 kts 352°
2026-04-26 03:03 30.38819 -81.38928 38925 ft 454 kts 352°
2026-04-26 03:03 30.45156 -81.39296 38922 ft 464 kts 352°
2026-04-26 03:04 30.51691 -81.39646 38918 ft 471 kts 352°
2026-04-26 03:04 30.58251 -81.39992 38914 ft 474 kts 352°
2026-04-26 03:05 30.64780 -81.40334 38915 ft 453 kts 352°
2026-04-26 03:05 30.67880 -81.40494 38905 ft 429 kts 352°
2026-04-26 03:05 30.70775 -81.40647 38892 ft 418 kts 351°
2026-04-26 03:06 30.76606 -81.40964 38921 ft 421 kts 351°
2026-04-26 03:06 30.82514 -81.41280 38904 ft 424 kts 352°
2026-04-26 03:07 30.88415 -81.41592 38905 ft 426 kts 352°
2026-04-26 03:07 30.94365 -81.41911 38626 ft 434 kts 352°
2026-04-26 03:08 30.97361 -81.42071 38098 ft 429 kts 352°
2026-04-26 03:08 31.00333 -81.42230 37600 ft 426 kts 352°
2026-04-26 03:08 31.03285 -81.42385 37120 ft 422 kts 352°
2026-04-26 03:08 31.06210 -81.42542 36650 ft 419 kts 352°
2026-04-26 03:09 31.09105 -81.42695 36185 ft 416 kts 352°
2026-04-26 03:09 31.11990 -81.42852 35726 ft 413 kts 352°
2026-04-26 03:09 31.14865 -81.43003 35277 ft 410 kts 352°
2026-04-26 03:09 31.17691 -81.43157 34838 ft 408 kts 352°
2026-04-26 03:10 31.20517 -81.43308 34398 ft 406 kts 352°
2026-04-26 03:10 31.23345 -81.43460 33947 ft 404 kts 352°
2026-04-26 03:10 31.26173 -81.43346 33505 ft 410 kts
2026-04-26 03:10 31.28948 -81.42597 33094 ft 410 kts
2026-04-26 03:11 31.31721 -81.41866 32656 ft 409 kts
2026-04-26 03:11 31.34515 -81.41132 32209 ft 408 kts
2026-04-26 03:11 31.37257 -81.40411 31759 ft 407 kts
2026-04-26 03:11 31.40027 -81.39679 31312 ft 406 kts
2026-04-26 03:12 31.42803 -81.38953 30866 ft 406 kts
2026-04-26 03:12 31.45543 -81.38229 30411 ft 405 kts
2026-04-26 03:12 31.48260 -81.37514 29972 ft 403 kts
2026-04-26 03:12 31.51021 -81.36788 29525 ft 402 kts
2026-04-26 03:13 31.53720 -81.36076 29086 ft 400 kts
2026-04-26 03:13 31.56449 -81.35358 28644 ft 399 kts
2026-04-26 03:13 31.59147 -81.34645 28202 ft 397 kts
2026-04-26 03:13 31.61844 -81.33933 27762 ft 394 kts
2026-04-26 03:14 31.64511 -81.33227 27326 ft 392 kts
2026-04-26 03:14 31.67165 -81.32529 26887 ft 389 kts
2026-04-26 03:14 31.69796 -81.31832 26458 ft 386 kts
2026-04-26 03:14 31.72415 -81.31139 26028 ft 383 kts
2026-04-26 03:15 31.75007 -81.30454 25609 ft 381 kts
2026-04-26 03:15 31.77572 -81.29774 25187 ft 377 kts
2026-04-26 03:15 31.80099 -81.29102 24773 ft 374 kts
2026-04-26 03:15 31.82637 -81.28432 24360 ft 371 kts
2026-04-26 03:16 31.85146 -81.27763 23950 ft 368 kts
2026-04-26 03:16 31.87620 -81.27108 23539 ft 364 kts
2026-04-26 03:16 31.90093 -81.26452 23134 ft 361 kts
2026-04-26 03:16 31.92525 -81.25803 22737 ft 357 kts
2026-04-26 03:17 31.94943 -81.25160 22348 ft 354 kts
2026-04-26 03:17 31.97360 -81.24518 21959 ft 351 kts
2026-04-26 03:17 31.99744 -81.23881 21572 ft 348 kts
2026-04-26 03:17 32.02116 -81.23249 21185 ft 345 kts
2026-04-26 03:18 32.04448 -81.22630 20808 ft 343 kts
2026-04-26 03:18 32.06768 -81.22012 20432 ft 340 kts
2026-04-26 03:18 32.09071 -81.21396 20060 ft 337 kts
2026-04-26 03:18 32.11385 -81.20780 19686 ft 335 kts
2026-04-26 03:19 32.13660 -81.20105 19306 ft 336 kts 17°
2026-04-26 03:19 32.15567 -81.18552 18943 ft 343 kts 45°
2026-04-26 03:19 32.16980 -81.16249 18587 ft 343 kts 51°
2026-04-26 03:19 32.18389 -81.13996 18214 ft 341 kts 50°
2026-04-26 03:20 32.19807 -81.11728 17835 ft 340 kts 50°
2026-04-26 03:20 32.21229 -81.09474 17467 ft 338 kts 50°
2026-04-26 03:20 32.22646 -81.07223 17092 ft 337 kts 50°
2026-04-26 03:20 32.24048 -81.04998 16725 ft 335 kts 50°
2026-04-26 03:21 32.25442 -81.02783 16371 ft 334 kts 50°
2026-04-26 03:21 32.26839 -81.00565 15995 ft 332 kts 50°
2026-04-26 03:21 32.28215 -80.98377 15623 ft 331 kts 50°
2026-04-26 03:21 32.29601 -80.96167 15248 ft 329 kts 50°
2026-04-26 03:22 32.30963 -80.94003 14874 ft 327 kts 50°
2026-04-26 03:22 32.32315 -80.91848 14502 ft 325 kts 50°
2026-04-26 03:22 32.33648 -80.89727 14144 ft 323 kts 50°
2026-04-26 03:22 32.35000 -80.87575 13774 ft 321 kts 50°
2026-04-26 03:23 32.36352 -80.85416 13405 ft 318 kts 51°
2026-04-26 03:23 32.37672 -80.83314 13099 ft 316 kts 51°
2026-04-26 03:23 32.38983 -80.81213 12759 ft 314 kts 51°
2026-04-26 03:23 32.40289 -80.79129 12425 ft 312 kts 51°
2026-04-26 03:24 32.41572 -80.77075 12092 ft 310 kts 51°
2026-04-26 03:24 32.42861 -80.75015 11755 ft 309 kts 51°
2026-04-26 03:24 32.44134 -80.72975 11420 ft 308 kts 51°
2026-04-26 03:24 32.45409 -80.70940 11083 ft 306 kts 52°
2026-04-26 03:25 32.46670 -80.68917 10749 ft 305 kts 52°
2026-04-26 03:25 32.47929 -80.66901 10418 ft 304 kts 52°
2026-04-26 03:25 32.49184 -80.64889 10080 ft 303 kts 52°
2026-04-26 03:25 32.50449 -80.62854 9737 ft 301 kts 52°
2026-04-26 03:26 32.51692 -80.60858 9451 ft 299 kts 52°
2026-04-26 03:26 32.52934 -80.58860 9148 ft 297 kts 52°
2026-04-26 03:26 32.54167 -80.56880 8832 ft 296 kts 52°
2026-04-26 03:26 32.55389 -80.54916 8494 ft 295 kts 53°
2026-04-26 03:27 32.56583 -80.52994 8168 ft 291 kts 52°
2026-04-26 03:27 32.57776 -80.51067 7836 ft 289 kts 53°
2026-04-26 03:27 32.58968 -80.49144 7510 ft 287 kts 53°
2026-04-26 03:27 32.60155 -80.47236 7184 ft 285 kts 53°
2026-04-26 03:28 32.61069 -80.45763 6928 ft 283 kts 53°
2026-04-26 03:28 32.61920 -80.44421 6726 ft 280 kts 51°
2026-04-26 03:28 32.62309 -80.43844 6611 ft 280 kts 51°
2026-04-26 03:28 32.63543 -80.42002 6288 ft 279 kts 51°
2026-04-26 03:29 32.64748 -80.40188 5937 ft 278 kts 51°
2026-04-26 03:29 32.65960 -80.38361 5600 ft 278 kts 52°
2026-04-26 03:29 32.67140 -80.36580 5256 ft 276 kts 51°
2026-04-26 03:29 32.68312 -80.34772 5000 ft 271 kts 59°
2026-04-26 03:30 32.68860 -80.32697 4947 ft 255 kts 83°
2026-04-26 03:30 32.69166 -80.30708 4929 ft 242 kts 83°
2026-04-26 03:30 32.69467 -80.28769 4938 ft 231 kts 82°
2026-04-26 03:30 32.69751 -80.26957 4947 ft 221 kts 81°
2026-04-26 03:31 32.70026 -80.25187 4935 ft 212 kts 82°
2026-04-26 03:31 32.70292 -80.23502 4973 ft 202 kts 82°
2026-04-26 03:31 32.70546 -80.21891 4957 ft 195 kts 82°
2026-04-26 03:31 32.70789 -80.20317 4958 ft 190 kts 83°
2026-04-26 03:32 32.71034 -80.18761 4947 ft 194 kts 82°
2026-04-26 03:32 32.71288 -80.17108 4989 ft 211 kts 82°
2026-04-26 03:32 32.71569 -80.15308 4992 ft 231 kts 82°
2026-04-26 03:32 32.71869 -80.13366 4995 ft 248 kts 82°
2026-04-26 03:33 32.72192 -80.11263 4990 ft 264 kts 82°
2026-04-26 03:33 32.72522 -80.09071 4986 ft 277 kts 82°
2026-04-26 03:33 32.72864 -80.06802 4904 ft 276 kts 82°
2026-04-26 03:33 32.73209 -80.04555 4676 ft 272 kts 82°
2026-04-26 03:34 32.73540 -80.02363 4456 ft 268 kts 82°
2026-04-26 03:34 32.73868 -80.00208 4230 ft 263 kts 81°
2026-04-26 03:34 32.73996 -79.99376 4142 ft 260 kts 81°
2026-04-26 03:34 32.74106 -79.98646 4067 ft 258 kts 81°
2026-04-26 03:35 32.74421 -79.96518 3837 ft 253 kts 82°
2026-04-26 03:35 32.74728 -79.94453 3613 ft 249 kts 82°
2026-04-26 03:35 32.75001 -79.92448 3387 ft 245 kts 87°
2026-04-26 03:35 32.75028 -79.90465 3173 ft 239 kts 91°
2026-04-26 03:36 32.75041 -79.88525 2945 ft 232 kts 91°
2026-04-26 03:36 32.75061 -79.86630 2715 ft 225 kts 91°
2026-04-26 03:36 32.75089 -79.84783 2488 ft 220 kts 92°
2026-04-26 03:36 32.74697 -79.83133 2258 ft 207 kts 132°
2026-04-26 03:37 32.73519 -79.82332 2061 ft 192 kts 177°
2026-04-26 03:37 32.72291 -79.82780 1862 ft 183 kts 223°
2026-04-26 03:37 32.71582 -79.84029 1666 ft 180 kts 239°
2026-04-26 03:37 32.70966 -79.85272 1576 ft 170 kts 240°
2026-04-26 03:38 32.70689 -79.86593 1570 ft 161 kts 265°
2026-04-26 03:38 32.70636 -79.87896 1563 ft 155 kts 265°
2026-04-26 03:38 32.70616 -79.89119 1581 ft 141 kts 266°
2026-04-26 03:38 32.70604 -79.90236 1500 ft 133 kts 266°
2026-04-26 03:39 32.70589 -79.91310 1368 ft 126 kts 266°
2026-04-26 03:39 32.70580 -79.92326 1197 ft 122 kts 267°
2026-04-26 03:39 32.70571 -79.93330 1034 ft 117 kts 266°
2026-04-26 03:39 32.70560 -79.94298 881 ft 117 kts 266°
2026-04-26 03:40 32.70548 -79.95283 740 ft 119 kts 267°
2026-04-26 03:40 32.70540 -79.96268 582 ft 119 kts 267°
2026-04-26 03:40 32.70528 -79.97255 426 ft 118 kts 268°
2026-04-26 03:40 32.70511 -79.98249 280 ft 123 kts 266°
2026-04-26 03:41 32.70511 -79.99239 79 ft 117 kts 268°
2026-04-26 03:41 32.70498 -80.00150 13 ft 101 kts 270°
2026-04-26 03:41 32.70490 -80.00912 18 ft 81 kts 271°
2026-04-26 03:41 32.70482 -80.01259 20 ft 12 kts 246°
2026-04-26 03:42 32.70404 -80.01279 20 ft 11 kts 164°
2026-04-26 03:42 32.70378 -80.01199 20 ft 11 kts 90°
2026-04-26 03:42 32.70375 -80.01099 19 ft 12 kts 90°
2026-04-26 03:42 32.70378 -80.00962 19 ft 19 kts 89°
2026-04-26 03:43 32.70379 -80.00796 18 ft 20 kts 90°
2026-04-26 03:43 32.70375 -80.00693 17 ft 3 kts 127°
2026-04-26 03:43 32.70352 -80.00687 17 ft 3 kts 185°
2026-04-26 03:43 32.70325 -80.00690 17 ft 3 kts 182°
2026-04-26 03:44 32.70298 -80.00688 17 ft 3 kts 178°
2026-04-26 03:44 32.70271 -80.00688 17 ft 4 kts 180°
2026-04-26 03:44 32.70230 -80.00687 17 ft 6 kts 180°
2026-04-26 03:44 32.70183 -80.00687 17 ft 6 kts 180°
2026-04-26 03:45 32.70132 -80.00688 17 ft 7 kts 180°
2026-04-26 03:45 32.70066 -80.00686 17 ft 13 kts 178°
2026-04-26 03:45 32.69951 -80.00683 16 ft 17 kts 180°
2026-04-26 03:45 32.69827 -80.00681 16 ft 17 kts 176°
2026-04-26 03:46 32.69762 -80.00714 16 ft 8 kts 275°
2026-04-26 03:46 32.69764 -80.00796 16 ft 11 kts 269°
2026-04-26 03:46 32.69720 -80.00837 16 ft 7 kts 167°
2026-04-26 03:47 32.69694 -80.00835 16 ft 0 kts 321°
2026-04-26 03:47 32.69700 -80.00836 16 ft 0 kts
2026-04-26 03:47 32.69702 -80.00836 16 ft 0 kts